Location: Mount Cross
(36.6390°N, 79.4878°W)
Time: 11:39:17
(UTC+00:00)

Tiros 1 despin weight - Visible Passes

Search period start: 30 March 2023 00:00
Search period end: 09 April 2023 00:00
Orbit: 588 x 634 km, 48.2° (Epoch: 29 March)

Date Brightness Start Highest point End Pass type
(mag) Time Alt. Az. Time Alt. Az. Time Alt. Az.
30 Mar ? 01:06:41 10° W 01:10:40 34° NNW 01:14:11 13° NE visible
30 Mar ? 02:49:58 10° NW 02:51:07 14° NW 02:51:07 14° NW visible
31 Mar ? 01:21:34 10° WNW 01:25:09 24° NNW 01:28:04 13° NNE visible
31 Mar ? 03:04:37 10° NW 03:05:00 11° NW 03:05:00 11° NW visible
01 Apr ? 01:36:30 10° WNW 01:39:43 20° N 01:41:50 14° NNE visible
02 Apr ? 00:08:02 10° W 00:11:56 31° NNW 00:15:51 10° NE visible
02 Apr ? 01:51:19 10° NW 01:54:21 18° N 01:55:30 16° NNE visible
03 Apr ? 00:22:56 10° WNW 00:26:25 23° NNW 00:29:55 10° NE visible
03 Apr ? 02:05:52 10° NW 02:08:58 18° N 02:09:05 18° N visible
04 Apr ? 00:37:50 10° NW 00:40:58 19° N 00:44:07 10° NE visible
04 Apr ? 02:20:08 10° NW 02:22:38 20° N 02:22:38 20° N visible
05 Apr ? 00:52:35 10° NW 00:55:35 18° N 00:58:35 10° NE visible
05 Apr ? 02:34:13 10° NW 02:36:09 21° NNW 02:36:09 21° NNW visible
06 Apr ? 01:07:01 10° NW 01:10:10 19° N 01:12:44 12° NE visible
06 Apr ? 02:48:13 10° NW 02:49:38 19° NW 02:49:38 19° NW visible
07 Apr ? 01:21:12 10° NW 01:24:42 23° NNE 01:26:13 19° NE visible
07 Apr ? 03:02:14 10° NW 03:03:07 16° NW 03:03:07 16° NW visible
08 Apr ? 01:35:13 10° NW 01:39:07 31° NNE 01:39:42 30° NE visible
08 Apr ? 03:16:23 10° WNW 03:16:36 11° WNW 03:16:36 11° WNW visible
